Regional Weather Roundup
Issued by NWS Newport/Morehead, NC

Current Version | Previous Version | Text Only | Print | Product List | Glossary On
Versions: 1 2 3 4 5 6 7 8 9 10 11 12 13 14 15 16 17 18 19 20 21 22 23 24 25 26 27 28 29 30 31 32 33 34 35 36 37 38 39 40 41 42 43 44 45 46 47 48 49 50
000
ASUS42 KMHX 241725
RWRMHX
WEATHER ROUNDUP FOR EASTERN NORTH CAROLINA
NATIONAL WEATHER SERVICE NEWPORT/MOREHEAD CITY NC
100 PM EDT SUN MAY 24 2015

NOTE: "FAIR" INDICATES FEW OR NO CLOUDS BELOW 12,000 FEET
WITH NO SIGNIFICANT WEATHER AND/OR OBSTRUCTIONS TO VISIBILITY

NCZ015>017-031-032-045>047-102-103-241800-
NORTH COAST

CITY           SKY/WX    TMP DP  RH WIND       PRES   REMARKS
EDENTON        SUNNY     77  56  47 SW6       30.40F
ELIZABETH CITY SUNNY     76  59  55 E9        30.40F
KITTY HAWK     SUNNY     72  49  44 SE5       30.41S
MANTEO         SUNNY     73  54  50 E9        30.42S

$$

NCZ045>047-081-094-103-104-241800-
CENTRAL COAST

CITY           SKY/WX    TMP DP  RH WIND       PRES   REMARKS
FRISCO         MOSUNNY   76  56  49 SE12      30.42F
SWANQUARTER      N/A     79 N/A N/A S7G13     30.36F

$$

NCZ095-097-098-100-101-241800-
SOUTHERN COAST

CITY           SKY/WX    TMP DP  RH WIND       PRES   REMARKS
BEAUFORT       SUNNY     79  59  50 SE8       30.40F
CEDAR ISLAND     N/A     77 N/A N/A NE5       30.44S
JACKSONVILLE   SUNNY     79  53  40 S9        30.39F
PINEY ISLAND   SUNNY    N/A N/A N/A E10       30.41S
WILMINGTON     MOSUNNY   79  57  46 SE9       30.40F


$$

NCZ011>013-027>030-043-044-078>080-089-090>093-098-241800-
COASTAL PLAIN

CITY           SKY/WX    TMP DP  RH WIND       PRES   REMARKS
AHOSKIE        SUNNY     76  55  47 SW3       30.40S
CLINTON        MOSUNNY   79  59  50 S6        30.40S
ELIZABETHTOWN  MOSUNNY   81  51  35 SE6       30.38F
GOLDSBORO      MOSUNNY   81  55  40 VRB1      30.37F
GREENVILLE     MOSUNNY   77  55  47 CALM      30.40S
HAVELOCK       CLOUDY    77  56  48 SW5       30.40F
KENANSVILLE    MOSUNNY   79  53  39 E3        30.40F
KINSTON        MOSUNNY   81  52  36 S6        30.40F
NEW BERN       SUNNY     80  53  39 S6        30.41F
RICHLANDS      MOSUNNY   81  54  39 S6        30.39F
ROCKY MOUNT    MOSUNNY   78  56  46 S7        30.40S
WASHINGTON     SUNNY     78  53  40 S6        30.40S
WHITEVILLE     PTSUNNY   81  53  38 E7        30.38F

$$

AMZ130-135-150-152-154-156-158-170-250-252-270-ANZ085-086-088-633-658-670-241800-
MARINE OBSERVATIONS

STATION/POSITION TIME  TEMP    WIND        PRES    WAVE   SWELL
                       AIR SEA DIR/SP/G            HT/PER HT/PER
                 (UTC) (F)     (DEG/KT/KT) (MB)    (FT/S) (FT/S)
CHESAPEAKE LIGHT 1700   62     150/ 14/ 14 1030.2
64 E VA BEACH    1650   64 62  130/  8/  8 1029.8    2/ 7   2/ 7
DUCK             1700   66 63  120/  8/  9 1029.0
2 E DUCK         1711      65                N/A     2/ 5
OREGON INLET     1700   69 69   90/ 10/ 13 1030.0
13E OREGON INLT  1700      66                N/A     2/ 6
HATTERAS CG      1700   72 72  100/  8/  9 1029.6
DIAMOND BUOY     1650   73 78   50/  4/  8 1030.0    2/ 7   2/ 7
CAPE LOOKOUT     1700   74      70/  6/  8 1029.4
BEAUFORT LAB     1700   75 74  140/  8/ 12 1028.7
27 SE WRIGHTSVLE 1700   73 77  130/  8/ 10   N/A
5 SE WRIGHTSVLE  1608   75 76  120/ 10/ 14 1029.6
225 S CAPE HAT   1650   72 74   60/ 17/ 21 1028.2    6/ 7
41 SE CHARLESTON 1650   75 75   80/ 16/ 17 1027.4    5/ 7   3/ 7

$$



USA.gov is the U.S. government's official web portal to all federal, state and local government web resources and services.